[[{"header":{"parameterUnit":"m.s-1","parameterCategory":1,"la1":30.2991,"la2":30.254,"lo1":-89.0895,"lo2":-89.0444,"dy":0.0017,"dx":0.0017,"nx":28,"ny":28,"refTime":"2024-10-01T09:00:00:Z","depth":0,"parameterNumber":2,"parameterNumberName":"U-component_of_WINDS"},"data":[0,0,0,0,0,0,0,0,0,0,0,0,0,0,0,0,0,0,0,0,0,0,0,0,0,0,0,0,0,0,0,0,0,0,0,0,0,0,0,0,0,0,0,0,0,0,0,0,0,0,0,0,0,0,0,0,0,0,-1.0166,-1.0167,0,-1.0234,-1.0235,-1.0236,-1.0187,-1.0185,-1.0182,-1.018,-1.0254,-1.0257,-1.0261,0,0,0,0,0,0,0,0,0,0,0,0,0,-0.9995,-0.9999,-1.0166,-1.0167,-1.0168,-1.0234,-1.0235,-1.0236,-1.0187,-1.0184,-1.0182,-1.0179,-1.0252,-1.0257,-1.0262,0,0,0,0,0,0,0,0,0,0,0,0,0,-1.0067,-1.0,-1.0166,-1.0151,-1.0151,-1.0234,-1.0235,-1.0236,-1.0188,-1.0184,-1.0181,-1.0178,-1.0251,-1.0256,-1.0262,-1.0365,0,0,-1.0281,-1.0283,0,0,0,0,0,0,0,0,-1.0063,-1.0074,-1.0153,-1.0152,-1.0152,-1.0199,-1.0202,-1.028,-1.0189,-1.0174,-1.018,-1.0176,-1.0238,-1.0245,-1.0265,-1.0369,-1.0372,-1.0281,-1.0285,-1.0287,-1.0289,0,0,0,0,0,0,0,-1.0058,-1.007,-1.0193,-1.0154,-1.0153,-1.0142,-1.0149,-1.0216,-1.0224,-1.0175,-1.0171,-1.018,-1.0237,-1.0259,-1.0266,-1.0373,-1.0281,-1.0286,-1.029,-1.0292,-1.0565,-1.0568,0,0,0,0,0,0,-1.0054,-1.0067,-1.0191,-1.0195,-1.0098,-1.0148,-1.0155,-1.0187,-1.0223,-1.0225,-1.0183,-1.0177,-1.0251,-1.026,-1.0269,-1.0393,-1.0287,-1.0293,-1.0296,-1.0561,-1.0565,-1.0569,0,0,0,0,0,0,-1.0051,-1.0066,-1.0188,-1.013,-1.0145,-1.0154,-1.019,-1.019,-1.0212,-1.0229,-1.023,-1.0204,-1.0249,-1.026,-1.0341,-1.0394,-1.0296,-1.0301,-1.0557,-1.0562,-1.0567,-1.064,0,0,0,0,0,0,-1.0046,-1.0065,-1.0104,-1.0131,-1.0148,-1.0259,-1.0194,-1.0194,-1.0222,-1.0216,-1.0249,-1.0251,-1.0247,-1.0333,-1.0347,-1.0401,-1.0306,-1.0552,-1.0559,-1.0566,-1.0633,-1.0648,-1.066,0,0,0,0,0,-1.004,-1.0122,-1.0106,-1.0121,-1.0196,-1.0262,-1.0272,-1.0265,-1.0227,-1.0266,-1.0277,-1.025,-1.0386,-1.0342,-1.0358,-1.0414,-1.0549,-1.0557,-1.0565,-1.0628,-1.0645,-1.066,0,0,0,0,0,0,-1.0102,-1.0125,-1.0108,-1.0201,-1.023,-1.0254,-1.0304,-1.0283,-1.0325,-1.0317,-1.0307,-1.0315,-1.04,-1.0414,-1.0365,-1.0515,-1.0461,-1.0473,-1.0503,-1.052,-1.0533,-1.0529,-1.0311,0,0,0,0,0,-1.0126,-1.0177,-1.0195,-1.0275,-1.029,-1.0295,-1.0323,-1.0314,-1.0345,-1.0357,-1.0374,-1.0405,-1.0454,-1.0487,-1.0534,-1.0634,-1.0642,-1.0681,-1.0694,-1.0705,-1.0716,-1.0771,-1.0789,-1.0596,-1.0596,-1.0596,0,0,-1.0177,-1.0196,-1.0229,-1.0288,-1.0309,-1.0364,-1.0305,-1.0365,-1.0405,-1.0366,-1.0444,-1.0457,-1.0491,-1.0583,-1.0624,-1.0598,-1.077,-1.0715,-1.0724,-1.0729,-1.0782,-1.08,-1.0816,-1.0602,-1.0601,-1.06,0,0,-1.0298,-1.0317,-1.0386,-1.0408,-1.0441,-1.0443,-1.046,-1.0487,-1.0494,-1.0571,-1.0544,-1.0592,-1.0677,-1.0703,-1.0727,-1.0856,-1.0834,-1.0871,-1.0942,-1.0996,-1.1011,-1.1025,-1.1073,-1.109,-1.0882,-1.0882,-1.0882,0,-1.0358,-1.0437,-1.0425,-1.0486,-1.0514,-1.0479,-1.055,-1.0573,-1.062,-1.064,-1.0609,-1.0715,-1.0736,-1.0833,-1.0865,-1.0885,-1.0905,-1.0869,-1.101,-1.1023,-1.1036,-1.1082,-1.11,-1.0887,-1.0886,-1.0886,-1.0885,0,-1.051,-1.0565,-1.0617,-1.0662,-1.0695,-1.0761,-1.076,-1.0794,-1.0782,-1.0788,-1.0868,-1.089,-1.0941,-1.0963,-1.0953,-1.106,-1.1043,-1.1011,-1.0957,-1.1059,-1.1102,-1.1119,-1.0893,-1.0892,-1.089,-1.0889,0,0,-1.0674,-1.071,-1.073,-1.075,-1.0783,-1.0826,-1.0891,-1.0939,-1.097,-1.1003,-1.1058,-1.113,-1.1101,-1.1129,-1.112,-1.1167,-1.127,-1.113,-1.1131,-1.1157,-1.1392,-1.1417,-1.1438,-1.1254,-1.1258,-1.126,-1.139,0,-1.0798,-1.091,-1.09,-1.1006,-1.1058,-1.1026,-1.1082,-1.1109,-1.1115,-1.1161,-1.1168,-1.122,-1.1176,-1.1193,-1.1238,-1.1248,-1.1318,-1.1238,-1.1308,-1.131,-1.1303,-1.146,-1.1487,-1.1608,-1.1406,-1.1409,-1.1411,0,-1.0959,-1.0996,-1.1108,-1.1133,-1.1154,-1.1205,-1.1249,-1.1292,-1.1322,-1.1324,-1.1354,-1.1337,-1.1403,-1.1345,-1.1437,-1.1383,-1.141,-1.142,-1.1424,-1.1433,-1.1369,-1.1475,-1.1646,-1.1666,-1.1437,-1.1435,-1.1433,0,-1.107,-1.1148,-1.1225,-1.1243,-1.1274,-1.1311,-1.1326,-1.1352,-1.1382,-1.142,-1.144,-1.1486,-1.1512,-1.1548,-1.1544,-1.1502,-1.1638,-1.1579,-1.1643,-1.1643,-1.1675,-1.1674,-1.1856,-1.1688,-1.1688,-1.1688,-1.1687,0,-1.1212,-1.1282,-1.1276,-1.1324,-1.1401,-1.1389,-1.1466,-1.1477,-1.1501,-1.1551,-1.1524,-1.1572,-1.1563,-1.1611,-1.1608,-1.1685,-1.1697,-1.1701,-1.17,-1.1705,-1.1705,-1.1725,-1.1717,-1.1692,-1.1691,-1.169,-1.169,0,-1.135,-1.1349,-1.1431,-1.1453,-1.146,-1.1517,-1.1536,-1.1582,-1.1585,-1.1648,-1.1662,-1.1668,-1.1723,-1.1722,-1.1785,-1.1783,-1.1878,-1.1866,-1.1869,-1.1867,-1.1931,-1.1926,-1.2135,-1.2163,-1.1975,-1.1976,-1.1978,0,-1.1442,-1.1495,-1.1522,-1.1553,-1.157,-1.1621,-1.1651,-1.164,-1.1673,-1.171,-1.1752,-1.1804,-1.1845,-1.1934,-1.1945,-1.1993,-1.1983,-1.2053,-1.1991,-1.1994,-1.1987,-1.1985,-1.1992,-1.2067,-1.2069,-1.207,-1.2072,0,-1.1606,-1.1602,-1.1646,-1.169,-1.1727,-1.1761,-1.1792,-1.1819,-1.1812,-1.185,-1.1906,-1.1938,-1.2001,-1.2053,-1.2099,-1.2115,-1.2094,-1.2091,-1.2108,-1.2115,-1.2115,-1.2119,-1.1905,-1.2087,-1.2085,-1.2084,-1.2083,-1.2083,-1.1726,-1.1772,-1.1798,-1.1848,-1.187,-1.19,-1.1944,-1.1952,-1.1998,-1.2048,-1.2039,-1.2101,-1.2129,-1.2188,-1.2208,-1.2258,-1.2233,-1.2258,-1.2265,-1.2272,-1.228,-1.2105,-1.2265,-1.2265,-1.2265,-1.2264,-1.2264,0,-1.1891,-1.1905,-1.1951,-1.1995,-1.2035,-1.2008,-1.2041,-1.2077,-1.2132,-1.2159,-1.22,-1.2264,-1.2314,-1.2328,-1.2377,-1.2414,-1.2405,-1.2427,-1.2426,-1.2431,-1.2298,-1.2279,-1.2434,-1.2434,-1.2434,-1.2434,-1.2434,-1.2434,-1.1981,-1.2058,-1.2057,-1.2145,-1.2159,-1.2219,-1.2241,-1.2268,-1.2291,-1.2363,-1.2404,-1.2412,-1.2435,-1.2485,-1.253,-1.2533,-1.2554,-1.2581,-1.258,-1.2457,-1.244,-1.2424,-1.2406,-1.2584,-1.2585,-1.2708,-1.2709,-1.271]},{"header":{"parameterUnit":"m.s-1","parameterCategory":1,"la1":30.2991,"la2":30.254,"lo1":-89.0895,"lo2":-89.0444,"dy":0.0017,"dx":0.0017,"nx":28,"ny":28,"refTime":"2024-10-01T09:00:00:Z","depth":0,"parameterNumber":3,"parameterNumberName":"V-component_of_WINDS"},"data":[0,0,0,0,0,0,0,0,0,0,0,0,0,0,0,0,0,0,0,0,0,0,0,0,0,0,0,0,0,0,0,0,0,0,0,0,0,0,0,0,0,0,0,0,0,0,0,0,0,0,0,0,0,0,0,0,0,0,-2.9751,-2.9752,0,-2.9835,-2.9836,-2.9837,-2.9809,-2.9807,-2.9805,-2.9803,-2.9888,-2.9892,-2.9895,0,0,0,0,0,0,0,0,0,0,0,0,0,-2.9563,-2.9567,-2.9751,-2.9752,-2.9753,-2.9835,-2.9836,-2.9838,-2.9809,-2.9807,-2.9805,-2.9803,-2.9886,-2.9891,-2.9896,0,0,0,0,0,0,0,0,0,0,0,0,0,-2.9646,-2.9568,-2.9751,-2.9749,-2.975,-2.9835,-2.9836,-2.9838,-2.981,-2.9807,-2.9804,-2.9801,-2.9885,-2.9891,-2.9896,-2.9988,0,0,-2.9915,-2.9917,0,0,0,0,0,0,0,0,-2.9641,-2.9653,-2.9748,-2.9749,-2.975,-2.9809,-2.9801,-2.9888,-2.981,-2.9787,-2.9803,-2.98,-2.9864,-2.9871,-2.9893,-2.9992,-2.9996,-2.9915,-2.9919,-2.9921,-2.9923,0,0,0,0,0,0,0,-2.9636,-2.9649,-2.9784,-2.9749,-2.9751,-2.9743,-2.9752,-2.9817,-2.9839,-2.9789,-2.9787,-2.9797,-2.9863,-2.9887,-2.9895,-2.9997,-2.9915,-2.992,-2.9924,-2.9926,-3.0176,-3.0179,0,0,0,0,0,0,-2.963,-2.9644,-2.9782,-2.9787,-2.9688,-2.9749,-2.9758,-2.9793,-2.9839,-2.9843,-2.9799,-2.9796,-2.9878,-2.9888,-2.9897,-3.0008,-2.9921,-2.9927,-2.993,-3.0173,-3.0176,-3.018,0,0,0,0,0,0,-2.9626,-2.9642,-2.9778,-2.9715,-2.9732,-2.9755,-2.9794,-2.9796,-2.9819,-2.9847,-2.985,-2.982,-2.9877,-2.9889,-2.9966,-3.0011,-2.9929,-2.9935,-3.0169,-3.0174,-3.0178,-3.023,0,0,0,0,0,0,-2.962,-2.9641,-2.9676,-2.9716,-2.9735,-2.9846,-2.9796,-2.9799,-2.983,-2.9826,-2.9867,-2.9871,-2.9875,-2.9957,-2.9972,-3.0017,-2.9939,-3.0165,-3.0171,-3.0177,-3.0224,-3.0236,-3.0246,0,0,0,0,0,-2.9614,-2.9687,-2.9678,-2.9695,-2.9781,-2.9849,-2.986,-2.9864,-2.9834,-2.9869,-2.9887,-2.987,-3.0003,-2.9965,-2.9982,-3.0029,-3.0162,-3.017,-3.0176,-3.022,-3.0234,-3.0245,0,0,0,0,0,0,-2.9651,-2.9692,-2.9683,-2.9772,-2.9807,-2.9844,-2.9889,-2.9878,-2.9922,-2.9916,-2.9919,-2.9928,-3.0008,-3.0026,-2.9983,-3.0121,-3.0078,-3.0089,-3.0106,-3.0119,-3.013,-3.0123,-2.9944,0,0,0,0,0,-2.967,-2.9723,-2.9755,-2.9831,-2.9849,-2.9866,-2.9896,-2.9896,-2.9932,-2.9947,-2.997,-3.0006,-3.0055,-3.0088,-3.0136,-3.0227,-3.0235,-3.0268,-3.0278,-3.0287,-3.0296,-3.0345,-3.036,-3.0202,-3.0202,-3.0202,0,0,-2.9709,-2.9738,-2.9771,-2.9839,-2.9866,-2.992,-2.9879,-2.9937,-2.9977,-2.9956,-3.003,-3.0048,-3.0088,-3.0172,-3.0211,-3.019,-3.0341,-3.0296,-3.0302,-3.0307,-3.0354,-3.0369,-3.0382,-3.0207,-3.0206,-3.0206,0,0,-2.9808,-2.9835,-2.9901,-2.9929,-2.9972,-2.9983,-2.9998,-3.0037,-3.0048,-3.0123,-3.0108,-3.0155,-3.0241,-3.027,-3.0296,-3.0406,-3.0391,-3.0421,-3.0476,-3.0524,-3.0537,-3.0548,-3.0587,-3.0601,-3.043,-3.043,-3.043,0,-2.9851,-2.9932,-2.9936,-2.9996,-3.0026,-3.001,-3.0076,-3.0103,-3.0158,-3.0179,-3.0156,-3.0263,-3.0289,-3.038,-3.0407,-3.0428,-3.0446,-3.0416,-3.0535,-3.0546,-3.0556,-3.0594,-3.0608,-3.0433,-3.0433,-3.0433,-3.0432,0,-2.9983,-3.004,-3.0087,-3.0142,-3.0178,-3.0241,-3.0253,-3.0288,-3.0285,-3.0298,-3.0375,-3.0405,-3.0458,-3.0479,-3.0477,-3.057,-3.0556,-3.0534,-3.0491,-3.0575,-3.061,-3.0624,-3.0438,-3.0437,-3.0436,-3.0435,0,0,-3.0108,-3.0164,-3.0182,-3.0206,-3.0252,-3.0295,-3.0357,-3.041,-3.044,-3.0479,-3.053,-3.0603,-3.0583,-3.0613,-3.0613,-3.0655,-3.074,-3.0628,-3.0629,-3.0648,-3.0845,-3.0862,-3.0879,-3.0731,-3.0734,-3.0736,-3.0842,0,-3.0211,-3.032,-3.0325,-3.0425,-3.0477,-3.0462,-3.0516,-3.0549,-3.0563,-3.0609,-3.0624,-3.0676,-3.0645,-3.0663,-3.0704,-3.0721,-3.078,-3.0714,-3.0779,-3.0781,-3.077,-3.0897,-3.0915,-3.1013,-3.0856,-3.0858,-3.086,0,-3.0345,-3.0389,-3.0494,-3.0532,-3.0554,-3.0602,-3.0651,-3.0695,-3.0732,-3.074,-3.0773,-3.0767,-3.083,-3.0785,-3.0871,-3.0826,-3.0853,-3.0866,-3.0869,-3.0876,-3.0826,-3.0907,-3.1045,-3.106,-3.0881,-3.088,-3.0878,0,-3.0426,-3.0511,-3.0584,-3.0606,-3.0652,-3.0687,-3.0707,-3.0742,-3.0773,-3.0816,-3.0836,-3.0885,-3.0912,-3.0949,-3.0957,-3.0924,-3.1043,-3.0999,-3.1051,-3.1051,-3.1077,-3.1075,-3.1221,-3.1094,-3.1093,-3.1093,-3.1093,0,-3.054,-3.0605,-3.0621,-3.0667,-3.0739,-3.0744,-3.0815,-3.0833,-3.0864,-3.0912,-3.0901,-3.0947,-3.0954,-3.1001,-3.1007,-3.1077,-3.1089,-3.1096,-3.1097,-3.1098,-3.1097,-3.1115,-3.1109,-3.1097,-3.1096,-3.1095,-3.1095,0,-3.0642,-3.0656,-3.0736,-3.0773,-3.0784,-3.0836,-3.0867,-3.091,-3.0923,-3.0984,-3.0999,-3.1019,-3.1074,-3.1085,-3.1149,-3.1153,-3.1237,-3.1231,-3.1225,-3.1224,-3.1275,-3.127,-3.1439,-3.1461,-3.1319,-3.132,-3.1321,0,-3.0714,-3.0764,-3.0807,-3.0839,-3.0862,-3.0913,-3.0945,-3.0951,-3.0985,-3.1032,-3.1069,-3.1123,-3.1166,-3.1254,-3.1274,-3.1323,-3.1318,-3.1374,-3.1326,-3.1324,-3.1319,-3.1316,-3.1321,-3.1383,-3.1385,-3.1386,-3.1387,0,-3.0841,-3.0845,-3.0892,-3.0943,-3.0981,-3.1021,-3.1058,-3.1085,-3.1096,-3.1134,-3.119,-3.1224,-3.129,-3.1344,-3.1393,-3.1413,-3.1402,-3.1402,-3.1416,-3.1417,-3.1412,-3.1416,-3.125,-3.1398,-3.1397,-3.1396,-3.1396,-3.1395,-3.093,-3.0974,-3.1011,-3.1064,-3.1093,-3.1128,-3.1171,-3.1189,-3.1236,-3.1291,-3.1292,-3.1353,-3.1389,-3.1454,-3.1478,-3.1525,-3.1508,-3.1529,-3.1534,-3.1539,-3.1544,-3.1404,-3.1534,-3.1534,-3.1534,-3.1533,-3.1533,0,-3.1056,-3.108,-3.1128,-3.1181,-3.1223,-3.1209,-3.125,-3.1286,-3.134,-3.1375,-3.1418,-3.1482,-3.1534,-3.1558,-3.1609,-3.1642,-3.1638,-3.1655,-3.1653,-3.1658,-3.1557,-3.1539,-3.1658,-3.1658,-3.1658,-3.1658,-3.1658,-3.1658,-3.1127,-3.12,-3.1209,-3.1296,-3.1318,-3.1379,-3.1403,-3.1436,-3.1463,-3.1536,-3.1579,-3.1595,-3.1625,-3.1678,-3.1725,-3.1731,-3.175,-3.1769,-3.1773,-3.1678,-3.1665,-3.1653,-3.1637,-3.1774,-3.1774,-3.187,-3.1871,-3.1872]}]]